When you browse on this site, cookies collect data to enhance your experience and personalize the content and advertising you see.
Visit our Privacy Policy to learn more. By continuing to use the site, you agree to this use of cookies and data.
  • In United Kingdom
  • List of Countries
  • For 7 days
  • Water Temperature
  • Satellite Maps
  • Weather Map
  • Weather Widgets
  • user-avatar
    Login

    Hourly Weather Kalemie

    Today, 22 May, Wednesday

    Time Temperature Precipitation Wind Pressure Humidity
    00:00 +25°C° 0 mm 1 mps 705 mmHg 66%
    01:00 +24°C° 0 mm 1 mps 705 mmHg 68%
    02:00 +24°C° 0 mm 1 mps 705 mmHg 69%
    03:00 +23°C° 0 mm 1 mps 705 mmHg 70%
    04:00 +23°C° 0 mm 1 mps 705 mmHg 71%
    05:00 +23°C° 0 mm 1 mps 705 mmHg 72%
    06:00 +25°C° 0 mm 1 mps 705 mmHg 67%
    07:00 +27°C° 0 mm 1 mps 706 mmHg 62%
    08:00 +29°C° 0 mm 1 mps 707 mmHg 56%
    09:00 +31°C° 0 mm 1 mps 707 mmHg 49%
    10:00 +34°C° 0 mm 1 mps 707 mmHg 43%
    11:00 +36°C° 0 mm 1 mps 707 mmHg 36%
    12:00 +38°C° 0 mm 2 mps 706 mmHg 34%
    13:00 +38°C° 0 mm 2 mps 706 mmHg 33%
    14:00 +37°C° 0 mm 2 mps 705 mmHg 33%
    15:00 +36°C° 0 mm 2 mps 705 mmHg 38%
    16:00 +34°C° 0 mm 1 mps 705 mmHg 44%
    17:00 +33°C° 0 mm 1 mps 705 mmHg 49%
    18:00 +31°C° 0 mm 1 mps 705 mmHg 54%
    19:00 +30°C° 0 mm 1 mps 705 mmHg 60%
    20:00 +28°C° 0 mm 1 mps 705 mmHg 65%
    21:00 +27°C° 1 mm 1 mps 705 mmHg 73%
    22:00 +25°C° 1 mm 1 mps 705 mmHg 81%
    23:00 +24°C° 1 mm 2 mps 705 mmHg 89%

    Tomorrow, 23 May, Thursday

    Time Temperature Precipitation Wind Pressure Humidity
    00:00 +24°C° 0 mm 2 mps 705 mmHg 89%
    01:00 +24°C° 0 mm 1 mps 705 mmHg 89%
    02:00 +24°C° 0 mm 1 mps 705 mmHg 89%
    03:00 +23°C° 0 mm 1 mps 705 mmHg 89%
    04:00 +23°C° 0 mm 1 mps 704 mmHg 89%
    05:00 +23°C° 0 mm 1 mps 704 mmHg 89%
    06:00 +24°C° 0 mm 2 mps 705 mmHg 84%
    07:00 +26°C° 0 mm 2 mps 706 mmHg 79%
    08:00 +28°C° 0 mm 2 mps 706 mmHg 73%
    09:00 +31°C° 0 mm 2 mps 707 mmHg 62%
    10:00 +35°C° 0 mm 2 mps 707 mmHg 50%
    11:00 +38°C° 0 mm 2 mps 707 mmHg 39%
    12:00 +38°C° 0 mm 2 mps 706 mmHg 37%
    13:00 +38°C° 0 mm 2 mps 706 mmHg 34%
    14:00 +39°C° 0 mm 2 mps 705 mmHg 32%
    15:00 +36°C° 0 mm 1 mps 704 mmHg 38%
    16:00 +35°C° 0 mm 1 mps 704 mmHg 43%
    17:00 +33°C° 0 mm 1 mps 703 mmHg 48%
    18:00 +32°C° 0 mm 1 mps 704 mmHg 51%
    19:00 +31°C° 0 mm 1 mps 704 mmHg 54%
    20:00 +29°C° 0 mm 1 mps 704 mmHg 57%
    21:00 +29°C° 0 mm 1 mps 704 mmHg 61%
    22:00 +28°C° 0 mm 1 mps 704 mmHg 64%
    23:00 +27°C° 0 mm 1 mps 704 mmHg 67%

    Day after tomorrow, 24 May, Friday

    Time Temperature Precipitation Wind Pressure Humidity
    00:00 +27°C° 0.1 mm 1 mps 705 mmHg 70%
    01:00 +26°C° 0.1 mm 1 mps 705 mmHg 73%
    02:00 +25°C° 0.1 mm 1 mps 705 mmHg 77%
    03:00 +24°C° 1.6 mm 1 mps 705 mmHg 83%
    04:00 +24°C° 1.6 mm 1 mps 705 mmHg 89%
    05:00 +23°C° 1.6 mm 1 mps 705 mmHg 96%
    06:00 +23°C° 1 mm 2 mps 706 mmHg 95%
    07:00 +24°C° 1 mm 2 mps 706 mmHg 93%
    08:00 +25°C° 1 mm 2 mps 707 mmHg 92%
    09:00 +27°C° 0 mm 2 mps 707 mmHg 81%
    10:00 +29°C° 0 mm 2 mps 708 mmHg 69%
    11:00 +33°C° 0 mm 3 mps 708 mmHg 58%
    12:00 +34°C° 0 mm 2 mps 707 mmHg 51%
    13:00 +35°C° 0 mm 1 mps 707 mmHg 45%
    14:00 +37°C° 0 mm 1 mps 706 mmHg 38%
    15:00 +35°C° 0 mm 1 mps 706 mmHg 44%
    16:00 +34°C° 0 mm 2 mps 705 mmHg 50%
    17:00 +31°C° 0 mm 2 mps 705 mmHg 56%
    18:00 +29°C° 0.4 mm 2 mps 705 mmHg 66%
    19:00 +27°C° 0.4 mm 2 mps 705 mmHg 76%
    20:00 +25°C° 0.4 mm 2 mps 705 mmHg 86%
    21:00 +24°C° 0 mm 2 mps 705 mmHg 87%
    22:00 +24°C° 0 mm 1 mps 706 mmHg 88%
    23:00 +24°C° 0 mm 1 mps 706 mmHg 89%

    25 May, Saturday

    Time Temperature Precipitation Wind Pressure Humidity
    00:00 +24°C° 0 mm 1 mps 705 mmHg 89%
    01:00 +24°C° 0 mm 1 mps 705 mmHg 90%
    02:00 +23°C° 0 mm 1 mps 705 mmHg 90%
    03:00 +23°C° 0 mm 1 mps 705 mmHg 89%
    04:00 +23°C° 0 mm 2 mps 705 mmHg 88%
    05:00 +23°C° 0 mm 2 mps 705 mmHg 88%
    06:00 +25°C° 0 mm 2 mps 705 mmHg 82%
    07:00 +26°C° 0 mm 2 mps 706 mmHg 77%
    08:00 +27°C° 0 mm 2 mps 707 mmHg 71%
    09:00 +30°C° 0 mm 2 mps 707 mmHg 62%
    10:00 +32°C° 0 mm 2 mps 708 mmHg 52%
    11:00 +36°C° 0 mm 2 mps 708 mmHg 42%
    12:00 +35°C° 0 mm 2 mps 707 mmHg 45%
    13:00 +35°C° 0 mm 2 mps 706 mmHg 47%
    14:00 +34°C° 0 mm 2 mps 705 mmHg 50%
    15:00 +34°C° 0 mm 2 mps 705 mmHg 52%
    16:00 +32°C° 0 mm 2 mps 705 mmHg 53%
    17:00 +32°C° 0 mm 2 mps 705 mmHg 55%
    18:00 +30°C° 1.3 mm 2 mps 705 mmHg 67%
    19:00 +27°C° 1.3 mm 2 mps 705 mmHg 78%
    20:00 +25°C° 1.3 mm 2 mps 705 mmHg 90%
    21:00 +24°C° 1.9 mm 1 mps 705 mmHg 91%
    22:00 +24°C° 1.9 mm 1 mps 705 mmHg 92%
    23:00 +24°C° 1.9 mm 1 mps 705 mmHg 92%

    26 May, Sunday

    Time Temperature Precipitation Wind Pressure Humidity
    00:00 +23°C° 0 mm 1 mps 705 mmHg 92%
    01:00 +23°C° 0 mm 1 mps 704 mmHg 92%
    02:00 +23°C° 0 mm 1 mps 704 mmHg 92%
    03:00 +23°C° 0 mm 1 mps 704 mmHg 93%
    04:00 +21°C° 0 mm 2 mps 704 mmHg 94%
    05:00 +21°C° 0 mm 2 mps 704 mmHg 94%
    06:00 +23°C° 0 mm 2 mps 705 mmHg 90%
    07:00 +24°C° 0 mm 2 mps 706 mmHg 87%
    08:00 +26°C° 0 mm 2 mps 707 mmHg 83%
    09:00 +28°C° 0 mm 2 mps 707 mmHg 72%
    10:00 +31°C° 0 mm 1 mps 707 mmHg 61%
    11:00 +33°C° 0 mm 1 mps 707 mmHg 51%
    12:00 +35°C° 0 mm 1 mps 706 mmHg 47%
    13:00 +36°C° 0 mm 1 mps 706 mmHg 43%
    14:00 +36°C° 0 mm 0 mps 705 mmHg 39%
    15:00 +36°C° 0 mm 1 mps 705 mmHg 43%
    16:00 +35°C° 0 mm 1 mps 704 mmHg 46%
    17:00 +34°C° 0 mm 1 mps 704 mmHg 50%
    18:00 +32°C° 0.1 mm 1 mps 704 mmHg 55%
    19:00 +30°C° 0.1 mm 1 mps 705 mmHg 61%
    20:00 +28°C° 0.1 mm 1 mps 705 mmHg 66%
    21:00 +26°C° 1.2 mm 1 mps 705 mmHg 74%
    22:00 +25°C° 1.2 mm 1 mps 705 mmHg 82%
    23:00 +24°C° 1.2 mm 1 mps 705 mmHg 90%

    27 May, Monday

    Time Temperature Precipitation Wind Pressure Humidity
    00:00 +23°C° 0.1 mm 1 mps 704 mmHg 91%
    01:00 +23°C° 0.1 mm 1 mps 704 mmHg 93%
    02:00 +23°C° 0.1 mm 2 mps 704 mmHg 94%
    03:00 +23°C° 0 mm 2 mps 704 mmHg 94%
    04:00 +23°C° 0 mm 2 mps 704 mmHg 94%
    05:00 +23°C° 0 mm 2 mps 704 mmHg 95%
    06:00 +24°C° 0 mm 2 mps 705 mmHg 90%
    07:00 +25°C° 0 mm 3 mps 706 mmHg 85%
    08:00 +26°C° 0 mm 3 mps 707 mmHg 80%
    09:00 +29°C° 0.1 mm 3 mps 707 mmHg 69%
    10:00 +31°C° 0.1 mm 3 mps 707 mmHg 59%
    11:00 +35°C° 0.1 mm 2 mps 707 mmHg 48%
    12:00 +35°C° 0.1 mm 2 mps 706 mmHg 47%
    13:00 +35°C° 0.1 mm 2 mps 705 mmHg 46%
    14:00 +35°C° 0.1 mm 2 mps 705 mmHg 45%
    15:00 +35°C° 0 mm 2 mps 705 mmHg 47%
    16:00 +34°C° 0 mm 1 mps 705 mmHg 49%
    17:00 +33°C° 0 mm 1 mps 705 mmHg 51%
    18:00 +31°C° 0.3 mm 1 mps 705 mmHg 60%
    19:00 +28°C° 0.3 mm 1 mps 705 mmHg 70%
    20:00 +26°C° 0.3 mm 1 mps 705 mmHg 79%
    21:00 +25°C° 1.4 mm 1 mps 705 mmHg 82%
    22:00 +24°C° 1.4 mm 1 mps 705 mmHg 86%
    23:00 +24°C° 1.4 mm 1 mps 705 mmHg 89%
    Show more